Location: Highland Meadows Observing Site
(48.4428°N, 114.5461°W)
Time: 07:15:56
(UTC-06:00)

Amateur Radio Satellites - All Passes

Search period start: 01 November 2014 06:45
Search period end: 02 November 2014 05:45
Location: Highland Meadows Observing Site, 48.4428°N, 114.5461°W

Satellite Date Start Highest point End Downlink Frequencies (MHz)
Time Altitude Azimuth
Sapphire 01 Nov 06:49:04 06:51:27 13° 344° (NNW) 06:53:50 437.095 MHz 1200 baud AX-25 AFSK
RS-15 01 Nov 06:56:03 07:07:10 79° 237° (WSW) 07:18:45 29.354 - 29.394 USB, Beacon 29.352 USB
STRAND 1 01 Nov 06:59:16 07:04:13 50° 68° (ENE) 07:09:13 ?
Uosat F 01 Nov 06:59:34 07:04:26 48° 292° (WNW) 07:09:16 435.120 FM
MaSat-1 01 Nov 07:03:56 07:05:38 16° 47° (NE) 07:07:15 437.345 MHz
PCSat 01 Nov 07:12:03 07:13:41 11° 350° (N) 07:15:20 145.825 MHz
JAS-2 01 Nov 07:15:31 07:23:26 78° 103° (ESE) 07:31:08 435.800 - 435.900 CW/SSB, 435.910 FM
AO-7 01 Nov 07:36:57 07:44:42 45° 303° (WNW) 07:52:27 29.400 - 29.500 MHz
Hamsat 01 Nov 07:37:37 07:41:51 85° 103° (ESE) 07:46:07 145.90 MHz
SO-67 01 Nov 07:53:21 07:55:36 16° 91° (E) 07:57:49 435.3500 MHz FM
Saudisat 1A 01 Nov 08:14:22 08:18:21 32° 321° (NW) 08:22:21 436.775 MHz
Sapphire 01 Nov 08:35:43 08:37:28 11° 11° (N) 08:39:12 437.095 MHz 1200 baud AX-25 AFSK
MaSat-1 01 Nov 08:38:59 08:41:00 21° 249° (WSW) 08:42:55 437.345 MHz
STRAND 1 01 Nov 08:39:27 08:43:40 25° 267° (W) 08:47:56 ?
PCSat 01 Nov 08:57:12 08:59:41 13° 17° (NNE) 09:02:10 145.825 MHz
JAS-2 01 Nov 09:01:14 09:07:44 30° 304° (WNW) 09:14:11 435.800 - 435.900 CW/SSB, 435.910 FM
HO-68 01 Nov 09:08:10 09:12:20 16° 86° (E) 09:16:27 435.675 MHz FM
RS-15 01 Nov 09:09:52 09:17:46 23° 260° (W) 09:25:55 29.354 - 29.394 USB, Beacon 29.352 USB
Hamsat 01 Nov 09:15:23 09:17:12 13° 302° (WNW) 09:19:01 145.90 MHz
SO-67 01 Nov 09:25:31 09:28:44 37° 289° (WNW) 09:31:55 435.3500 MHz FM
AO-7 01 Nov 09:31:27 09:35:26 15° 326° (NNW) 09:39:26 29.400 - 29.500 MHz
Saudisat 1A 01 Nov 09:57:29 09:59:15 12° 344° (NNW) 10:01:01 436.775 MHz
Sapphire 01 Nov 10:18:27 10:22:56 25° 36° (NE) 10:27:23 437.095 MHz 1200 baud AX-25 AFSK
Oscar 11 01 Nov 10:23:17 10:26:04 17° 90° (E) 10:28:51 145.825 FM, Beacon 2401.500 USB
PCSat 01 Nov 10:39:54 10:44:50 34° 42° (NE) 10:49:44 145.825 MHz
SO-50 01 Nov 10:41:38 10:42:13 10° 107° (ESE) 10:42:49 436.795 FM
FUNcube-1 01 Nov 10:43:46 10:45:03 11° 87° (E) 10:46:20 145.950 - 145.970 MHz USB
KITSAT 1 01 Nov 10:52:35 10:59:29 32° 108° (ESE) 11:06:23 435.175 FM
HO-68 01 Nov 10:53:59 11:01:14 77° 106° (ESE) 11:08:25 435.675 MHz FM
ISS 01 Nov 10:59:44 11:02:40 30° 144° (SE) 11:05:38 145.800 FM
UKube-1 01 Nov 11:24:11 11:28:33 65° 102° (ESE) 11:32:52 145.840 MHz, 145.915 MHz
ZACube-1 01 Nov 11:35:21 11:39:18 38° 97° (E) 11:43:10 437.345 MHz
Saudisat 1A 01 Nov 11:39:54 11:40:48 11° 9° (N) 11:41:43 436.775 MHz
Oscar 11 01 Nov 11:58:23 12:02:37 57° 288° (WNW) 12:06:51 145.825 FM, Beacon 2401.500 USB
Sapphire 01 Nov 12:01:32 12:07:00 82° 238° (WSW) 12:12:26 437.095 MHz 1200 baud AX-25 AFSK
SO-50 01 Nov 12:17:22 12:21:52 72° 126° (SE) 12:26:32 436.795 FM
FUNcube-1 01 Nov 12:17:49 12:22:03 79° 285° (WNW) 12:26:11 145.950 - 145.970 MHz USB
PCSat 01 Nov 12:23:13 12:28:31 53° 243° (WSW) 12:33:46 145.825 MHz
ISS 01 Nov 12:35:52 12:39:11 70° 342° (NNW) 12:42:32 145.800 FM
HO-68 01 Nov 12:42:28 12:48:19 28° 306° (NW) 12:54:08 435.675 MHz FM
Oscar 16 01 Nov 12:42:41 12:46:04 18° 57° (ENE) 12:49:27 437.025 USB, Beacon 2401.1428
KITSAT 1 01 Nov 12:46:14 12:54:18 72° 310° (NW) 13:02:25 435.175 FM
UOSAT-12 01 Nov 12:56:24 12:59:58 22° 113° (ESE) 13:03:34 437.025 FM, 437.400 FM
JAS-1B 01 Nov 12:57:45 13:02:14 25° 57° (ENE) 13:06:51 435.800 - 435.900 CW/SSB
UKube-1 01 Nov 13:01:27 13:04:16 17° 301° (WNW) 13:07:05 145.840 MHz, 145.915 MHz
AO-Echo 01 Nov 13:09:02 13:12:10 17° 55° (NE) 13:15:20 ?
ZACube-1 01 Nov 13:12:08 13:15:32 24° 296° (WNW) 13:18:52 437.345 MHz
Uribyol 2 01 Nov 13:17:47 13:21:05 17° 56° (NE) 13:24:23 436.500 FM
Saudisat 1A 01 Nov 13:18:24 13:21:58 23° 33° (NNE) 13:25:31 436.775 MHz
ITAMSAT 1 01 Nov 13:25:45 13:29:17 19° 57° (ENE) 13:32:50 435.822 SSB
Oscar 19 01 Nov 13:32:48 13:37:37 42° 67° (ENE) 13:42:25 437.125 CW, 437.150 USB
Sapphire 01 Nov 13:46:51 13:49:34 14° 257° (WSW) 13:52:16 437.095 MHz 1200 baud AX-25 AFSK
FUNcube-1 01 Nov 13:56:55 13:57:40 10° 304° (NW) 13:58:25 145.950 - 145.970 MHz USB
SO-50 01 Nov 13:59:05 14:02:54 25° 327° (NNW) 14:06:50 436.795 FM
AO-27 01 Nov 14:11:57 14:16:50 42° 66° (ENE) 14:21:44 436.795 MHz FM
ISS 01 Nov 14:12:55 14:16:10 46° 3° (N) 14:19:25 145.800 FM
Oscar 16 01 Nov 14:19:40 14:24:50 80° 256° (WSW) 14:30:00 437.025 USB, Beacon 2401.1428
Gurwin Techsat 1B 01 Nov 14:34:07 14:38:55 36° 65° (ENE) 14:43:45 435.225 FM
UOSAT-12 01 Nov 14:35:05 14:39:43 62° 313° (NW) 14:44:26 437.025 FM, 437.400 FM
TMSAT-1 01 Nov 14:39:57 14:44:33 31° 63° (ENE) 14:49:11 436.925 FM
KITSAT 1 01 Nov 14:44:18 14:51:10 29° 336° (NNW) 14:58:03 435.175 FM
AO-Echo 01 Nov 14:45:08 14:50:11 88° 254° (WSW) 14:55:27 ?
JAS-1B 01 Nov 14:46:56 14:52:32 58° 259° (W) 14:58:18 435.800 - 435.900 CW/SSB
Uribyol 2 01 Nov 14:54:39 14:59:54 87° 255° (WSW) 15:05:10 436.500 FM
AO-7 01 Nov 14:56:37 15:03:13 28° 48° (NE) 15:09:49 29.400 - 29.500 MHz
Saudisat 1A 01 Nov 14:57:34 15:02:01 76° 234° (SW) 15:06:25 436.775 MHz
ITAMSAT 1 01 Nov 15:02:57 15:08:11 79° 256° (WSW) 15:13:27 435.822 SSB
Oscar 19 01 Nov 15:12:36 15:17:05 30° 265° (W) 15:21:35 437.125 CW, 437.150 USB
SO-50 01 Nov 15:43:17 15:45:07 12° 351° (N) 15:46:58 436.795 FM
ISS 01 Nov 15:49:43 15:53:04 88° 203° (SSW) 15:56:24 145.800 FM
JAS-2 01 Nov 15:50:43 15:54:03 14° 43° (NE) 15:57:32 435.800 - 435.900 CW/SSB, 435.910 FM
AO-27 01 Nov 15:51:50 15:56:27 31° 265° (W) 16:01:06 436.795 MHz FM
Oscar 16 01 Nov 16:03:16 16:05:01 12° 274° (W) 16:06:47 437.025 USB, Beacon 2401.1428
Gurwin Techsat 1B 01 Nov 16:13:58 16:18:52 37° 264° (W) 16:23:49 435.225 FM
UOSAT-12 01 Nov 16:17:32 16:20:48 18° 335° (NNW) 16:24:05 437.025 FM, 437.400 FM
TMSAT-1 01 Nov 16:19:18 16:24:20 44° 262° (W) 16:29:25 436.925 FM
AO-Echo 01 Nov 16:27:23 16:29:46 13° 275° (W) 16:32:12 ?
Uribyol 2 01 Nov 16:37:42 16:40:09 13° 273° (W) 16:42:36 436.500 FM
Uosat F 01 Nov 16:37:53 16:42:46 52° 69° (ENE) 16:47:40 435.120 FM
Saudisat 1A 01 Nov 16:39:53 16:40:47 11° 252° (WSW) 16:41:41 436.775 MHz
KITSAT 1 01 Nov 16:43:25 16:49:32 23° 5° (N) 16:55:37 435.175 FM
ITAMSAT 1 01 Nov 16:46:41 16:48:32 12° 275° (W) 16:50:24 435.822 SSB
AO-7 01 Nov 16:46:48 16:55:05 89° 250° (WSW) 17:03:27 29.400 - 29.500 MHz
Hamsat 01 Nov 17:01:25 17:03:10 12° 58° (ENE) 17:04:54 145.90 MHz
SO-50 01 Nov 17:25:13 17:27:44 14° 16° (NNE) 17:30:15 436.795 FM
ISS 01 Nov 17:26:55 17:29:24 19° 221° (SW) 17:31:52 145.800 FM
JAS-2 01 Nov 17:31:02 17:37:21 52° 66° (ENE) 17:44:27 435.800 - 435.900 CW/SSB, 435.910 FM
Oscar 10/S400 01 Nov 18:00:50 18:21:05 47° 175° (S) 20:28:06 145.825 - 145.975 CW/USB, Beacon 145.810 USB
UOSAT-12 01 Nov 18:01:22 18:02:50 11° 359° (N) 18:04:18 437.025 FM, 437.400 FM
Uosat F 01 Nov 18:17:49 18:21:50 24° 267° (W) 18:25:53 435.120 FM
AO-40 01 Nov 18:19:35 23:00:55 31° 189° (S) 03:06:20 Beacon 2401.320
SO-67 01 Nov 18:30:56 18:31:59 11° 61° (ENE) 18:33:01 435.3500 MHz FM
Hamsat 01 Nov 18:34:18 18:38:29 85° 257° (WSW) 18:42:42 145.90 MHz
KITSAT 1 01 Nov 18:40:04 18:47:31 38° 34° (NE) 18:54:56 435.175 FM
AO-7 01 Nov 18:42:56 18:48:59 22° 271° (W) 18:55:07 29.400 - 29.500 MHz
OPAL 01 Nov 18:46:28 18:51:11 42° 101° (E) 18:55:51 ?
SO-50 01 Nov 19:05:12 19:09:39 36° 39° (NE) 19:14:09 436.795 FM
STRAND 1 01 Nov 19:08:03 19:10:07 12° 86° (E) 19:12:10 ?
JAS-2 01 Nov 19:16:46 19:22:41 36° 268° (W) 19:29:17 435.800 - 435.900 CW/SSB, 435.910 FM
HO-68 01 Nov 19:41:16 19:46:24 22° 49° (NE) 19:51:33 435.675 MHz FM
UOSAT-12 01 Nov 19:41:43 19:44:55 17° 24° (NNE) 19:48:05 437.025 FM, 437.400 FM
SO-67 01 Nov 20:01:02 20:04:27 65° 259° (WSW) 20:07:54 435.3500 MHz FM
OPAL 01 Nov 20:25:39 20:29:56 30° 299° (WNW) 20:34:12 ?
KITSAT 1 01 Nov 20:35:34 20:43:40 77° 238° (WSW) 20:51:42 435.175 FM
STRAND 1 01 Nov 20:44:55 20:50:07 83° 105° (ESE) 20:55:16 ?
SO-50 01 Nov 20:45:44 20:50:21 46° 239° (WSW) 20:55:01 436.795 FM
UKube-1 01 Nov 20:49:51 20:51:49 13° 56° (NE) 20:53:47 145.840 MHz, 145.915 MHz
UOSAT-12 01 Nov 21:21:21 21:26:03 57° 46° (NE) 21:30:39 437.025 FM, 437.400 FM
Oscar 11 01 Nov 21:21:53 21:25:12 22° 63° (ENE) 21:28:31 145.825 FM, Beacon 2401.500 USB
RS-15 01 Nov 21:24:10 21:34:22 47° 112° (ESE) 21:44:33 29.354 - 29.394 USB, Beacon 29.352 USB
HO-68 01 Nov 21:25:58 21:33:08 82° 70° (ENE) 21:40:22 435.675 MHz FM
FUNcube-1 01 Nov 21:42:56 21:45:53 18° 61° (ENE) 21:48:47 145.950 - 145.970 MHz USB
MaSat-1 01 Nov 22:16:34 22:19:37 24° 112° (ESE) 22:22:26 437.345 MHz
UKube-1 01 Nov 22:22:58 22:27:20 90° 239° (WSW) 22:31:45 145.840 MHz, 145.915 MHz
STRAND 1 01 Nov 22:25:22 22:28:40 18° 304° (NW) 22:31:58 ?
KITSAT 1 01 Nov 22:32:39 22:37:46 19° 259° (W) 22:42:54 435.175 FM
ZACube-1 01 Nov 22:34:59 22:39:21 51° 71° (ENE) 22:43:37 437.345 MHz
Oscar 11 01 Nov 22:56:59 23:01:07 45° 261° (W) 23:05:17 145.825 FM, Beacon 2401.500 USB
UOSAT-12 01 Nov 23:02:06 23:05:52 24° 246° (WSW) 23:09:35 437.025 FM, 437.400 FM
HO-68 01 Nov 23:16:18 23:21:40 22° 270° (W) 23:27:05 435.675 MHz FM
FUNcube-1 01 Nov 23:17:22 23:21:50 63° 259° (WSW) 23:26:14 145.950 - 145.970 MHz USB
RS-15 01 Nov 23:35:33 23:46:24 64° 318° (NW) 23:57:22 29.354 - 29.394 USB, Beacon 29.352 USB
MaSat-1 01 Nov 23:51:35 23:54:53 31° 306° (NW) 23:57:52 437.345 MHz
UKube-1 02 Nov 00:03:12 00:04:11 11° 273° (W) 00:05:10 145.840 MHz, 145.915 MHz
ZACube-1 02 Nov 00:12:44 00:16:01 20° 268° (W) 00:19:15 437.345 MHz
PCSat 02 Nov 01:30:03 01:31:09 11° 101° (E) 01:32:14 145.825 MHz
Oscar 19 02 Nov 01:43:31 01:44:15 10° 84° (E) 01:45:00 437.125 CW, 437.150 USB
RS-15 02 Nov 01:51:29 01:01:16 35° 349° (N) 01:11:15 29.354 - 29.394 USB, Beacon 29.352 USB
AO-27 02 Nov 01:24:12 01:24:57 10° 84° (E) 01:25:41 436.795 MHz FM
JAS-1B 02 Nov 01:24:34 01:31:00 34° 95° (E) 01:38:27 435.800 - 435.900 CW/SSB
Oscar 16 02 Nov 01:27:59 01:32:20 27° 94° (E) 01:36:40 437.025 USB, Beacon 2401.1428
Sapphire 02 Nov 01:47:03 01:52:08 43° 115° (ESE) 01:57:14 437.095 MHz 1200 baud AX-25 AFSK
AO-Echo 02 Nov 01:49:06 01:53:26 25° 92° (E) 01:57:42 ?
Uribyol 2 02 Nov 02:04:10 02:08:27 25° 93° (E) 02:12:42 436.500 FM
PCSat 02 Nov 02:08:09 02:13:31 66° 120° (ESE) 02:18:55 145.825 MHz
ITAMSAT 1 02 Nov 02:12:28 02:16:57 28° 94° (E) 02:21:23 435.822 SSB
Oscar 19 02 Nov 02:19:22 02:24:31 73° 103° (ESE) 02:29:38 437.125 CW, 437.150 USB
AO-27 02 Nov 03:00:10 03:05:25 71° 103° (ESE) 03:10:37 436.795 MHz FM
RS-15 02 Nov 03:06:56 03:17:13 41° 23° (NNE) 03:27:47 29.354 - 29.394 USB, Beacon 29.352 USB
Oscar 16 02 Nov 03:07:00 03:11:53 46° 292° (WNW) 03:16:45 437.025 USB, Beacon 2401.1428
JAS-1B 02 Nov 03:15:01 03:21:51 60° 292° (WNW) 03:30:00 435.800 - 435.900 CW/SSB
Gurwin Techsat 1B 02 Nov 03:25:43 03:31:02 67° 102° (ESE) 03:36:19 435.225 FM
AO-Echo 02 Nov 03:27:18 03:32:30 54° 290° (WNW) 03:37:38 ?
OPAL 02 Nov 03:28:09 03:31:46 20° 56° (NE) 03:35:22 ?
Sapphire 02 Nov 03:30:33 03:35:37 39° 315° (NW) 03:40:44 437.095 MHz 1200 baud AX-25 AFSK
TMSAT-1 02 Nov 03:30:54 03:36:09 57° 101° (E) 03:41:21 436.925 FM
Uribyol 2 02 Nov 03:43:10 03:48:12 50° 292° (WNW) 03:53:11 436.500 FM
Uosat F 02 Nov 03:44:03 03:45:45 12° 86° (E) 03:47:26 435.120 FM
AO-7 02 Nov 03:44:53 03:51:23 24° 91° (E) 03:57:50 29.400 - 29.500 MHz
ITAMSAT 1 02 Nov 03:51:39 03:56:38 46° 293° (WNW) 04:01:35 435.822 SSB
PCSat 02 Nov 03:52:41 03:57:23 29° 321° (NW) 04:02:06 145.825 MHz
Oscar 19 02 Nov 03:59:46 04:03:20 19° 302° (WNW) 04:06:53 437.125 CW, 437.150 USB
Saudisat 1A 02 Nov 04:10:49 04:11:50 11° 108° (ESE) 04:12:51 436.775 MHz
AO-27 02 Nov 04:40:39 04:44:25 20° 302° (WNW) 04:48:10 436.795 MHz FM
OPAL 02 Nov 05:05:05 05:10:10 71° 254° (WSW) 05:15:13 ?
Gurwin Techsat 1B 02 Nov 05:06:33 05:10:32 22° 301° (WNW) 05:14:30 435.225 FM
JAS-1B 02 Nov 05:07:42 05:11:22 15° 311° (NW) 05:15:20 435.800 - 435.900 CW/SSB
AO-Echo 02 Nov 05:09:06 05:10:08 11° 310° (NW) 05:11:10 ?
TMSAT-1 02 Nov 05:11:29 05:15:44 25° 300° (WNW) 05:19:58 436.925 FM
Hamsat 02 Nov 05:17:35 05:19:41 13° 88° (E) 05:21:48 145.90 MHz
Sapphire 02 Nov 05:17:45 05:20:37 14° 339° (NNW) 05:23:29 437.095 MHz 1200 baud AX-25 AFSK
RS-15 02 Nov 05:19:58 05:31:09 87° 52° (NE) 05:42:48 29.354 - 29.394 USB, Beacon 29.352 USB
Uosat F 02 Nov 05:20:16 05:25:21 81° 105° (ESE) 05:30:24 435.120 FM
JAS-2 02 Nov 05:20:55 05:28:11 39° 93° (E) 05:35:12 435.800 - 435.900 CW/SSB, 435.910 FM
STRAND 1 02 Nov 05:26:37 05:30:56 28° 62° (ENE) 05:35:16 ?
PCSat 02 Nov 05:40:35 05:42:41 12° 346° (NNW) 05:44:48 145.825 MHz
